This demonstration page uses our WeatherBlox Daily Observations layout. Learn more.

Left ArrowRight Arrow

34.74481, -87.66753

Hourly Observations for July 16, 2016

Temp ( °F °C ) Dew Point ( °F °C ) Humidity (%) Winds ( mph kmh ) Pressure ( in mb ) Visibility ( mi km ) Precip ( " mm )
12:53 am 00:53 Clear 74 23.3 71 21.7 91 91 Calm 30.01 1016 10 16 0.00 0.00
1:53 am 01:53 Clear 74 23.3 71 21.7 91 91 SE 3 6 30.01 1016 10 16 0.00 0.00
2:53 am 02:53 Clear 74 23.3 70 21.1 88 88 Calm 30.00 1016 9 14 0.00 0.00
3:53 am 03:53 Clear 73 22.8 70 21.1 90 90 Calm 30.00 1016 8 13 0.00 0.00
4:53 am 04:53 Clear 73 22.8 70 21.1 90 90 Calm 30.02 1017 9 14 0.00 0.00
5:53 am 05:53 Sunny 74 23.3 71 21.7 91 91 Calm 30.04 1017 8 13 0.00 0.00
6:53 am 06:53 Sunny 75 23.9 71 21.7 88 88 Calm 30.05 1018 7 11 0.00 0.00
7:53 am 07:53 Sunny 76 24.4 72 22.2 88 88 Calm 30.06 1018 9 14 0.00 0.03
8:53 am 08:53 Partly Cloudy 80 26.7 73 22.8 79 79 Calm 30.07 1018 10 16 0.00 0.00
9:53 am 09:53 Sunny 83 28.3 74 23.3 74 74 Calm 30.07 1018 10 16 0.00 0.00
10:53 am 10:53 Sunny 88 31.1 72 22.2 59 59 Calm 30.07 1018 10 16 0.00 0.00
11:53 am 11:53 Mostly Cloudy with Nearby Thunderstorms 87 30.6 72 22.2 61 61 S 6 9 30.06 1018 10 16 0.00 0.03
12:10 pm 12:10 Cloudy with Thunderstorms 87 30.6 72 22.2 61 61 Calm 30.06 1018 10 16 0.00 0.00
12:37 pm 12:37 Mostly Cloudy with Nearby Thunderstorms 80 26.7 73 22.8 79 79 WSW 5 7 30.03 1017 9 14 0.01 0.25
12:51 pm 12:51 Partly Cloudy 82 28 73 23 74 74 Calm 30.03 1017 10 16 0.01 0.25
12:53 pm 12:53 Mostly Sunny 85 29.4 73 22.8 68 68 Calm 30.04 1017 10 16 0.01 0.25
1:08 pm 13:08 Sunny with Nearby Thunderstorms 87 30.6 74 23.3 65 65 SSW 8 13 30.03 1017 10 16 0.00 0.00
1:53 pm 13:53 Cloudy with Nearby Thunderstorms 82 27.8 70 21.1 67 67 NE 9 15 30.05 1018 10 16 0.00 0.00
2:03 pm 14:03 Cloudy with Thunderstorms 79 26.1 69 20.6 72 72 NNE 10 17 30.06 1018 10 16 0.01 0.25
2:10 pm 14:10 Cloudy with Strong Thunderstorms 76 24.4 70 21.1 82 82 NNE 13 20 30.06 1018 2 3 0.24 6.10
2:14 pm 14:14 Cloudy with Strong Thunderstorms 74 23.3 70 21.1 88 88 NE 8 13 30.06 1018 1 1 0.52 13.21
2:38 pm 14:38 Cloudy with Strong Thunderstorms 73 22.8 71 21.7 94 94 ESE 7 11 30.06 1018 1 2 1.19 30.23
2:50 pm 14:50 Cloudy with Thunderstorms 73 23 70 21 89 89 S 7 11 30.06 1018 3 5 1.27 32.26
2:53 pm 14:53 Cloudy with Thunderstorms 73 22.8 70 21.1 90 90 VRB 5 7 30.08 1019 5 8 1.29 32.77
2:56 pm 14:56 Cloudy with Nearby Thunderstorms 73 22.8 70 21.1 90 90 Calm 30.06 1018 2 3 0.05 1.27
3:05 pm 15:05 Cloudy with Nearby Thunderstorms 74 23.3 70 21.1 88 88 S 8 13 30.06 1018 3 5 0.06 1.52
3:38 pm 15:38 Mostly Cloudy 74 23.3 71 21.7 91 91 SW 7 11 30.06 1018 10 16 0.06 1.52
3:53 pm 15:53 Mostly Cloudy with Light Rain 74 23.3 71 21.7 91 91 SSW 3 6 30.06 1018 10 16 0.06 1.52
4:53 pm 16:53 Sunny 76 24.4 71 21.7 85 85 ESE 5 7 30.06 1018 10 16 0.01 0.25
5:53 pm 17:53 Sunny 78 25.6 71 21.7 79 79 VRB 3 6 30.04 1017 10 16 0.00 0.00
6:53 pm 18:53 Sunny 78 25.6 71 21.7 79 79 ESE 3 6 30.05 1018 10 16 0.00 0.00
7:53 pm 19:53 Sunny 77 25 72 22.2 85 85 SSE 3 6 30.07 1018 10 16 0.00 0.00
8:53 pm 20:53 Clear 74 23.3 71 21.7 91 91 Calm 30.09 1019 10 16 0.00 0.00
9:53 pm 21:53 Clear 73 22.8 70 21.1 90 90 Calm 30.10 1019 7 11 0.00 0.00
10:53 pm 22:53 Clear 73 22.8 70 21.1 90 90 E 5 7 30.11 1020 10 16 0.00 0.00
11:53 pm 23:53 Clear 72 22.2 69 20.6 91 91 Calm 30.11 1020 10 16 0.00 0.00

Powered by AerisWeather